owner,sensor,date,latitude,longitude,vertical_datum,sea_water_practical_salinity,qcFlag 
NERRS,ioos:station:NOAA.NERRS:wkbfrwq:1,2016-09-02T20:45:00Z,30.4162,-87.8228,2.61,14.6,1111122 
NERRS,ioos:station:NOAA.NERRS:wkbfrwq:1,2016-09-02T21:45:00Z,30.4162,-87.8228,2.54,14.6,1111122 
NERRS,ioos:station:NOAA.NERRS:wkbfrwq:1,2016-09-02T22:45:00Z,30.4162,-87.8228,2.48,13.8,1111122 
NERRS,ioos:station:NOAA.NERRS:wkbfrwq:1,2016-09-02T23:45:00Z,30.4162,-87.8228,2.44,14.4,1111122 
NERRS,ioos:station:NOAA.NERRS:wkbfrwq:1,2016-09-03T00:45:00Z,30.4162,-87.8228,2.4,14.1,1111122 
NERRS,ioos:station:NOAA.NERRS:wkbfrwq:1,2016-09-03T01:45:00Z,30.4162,-87.8228,2.38,14.2,1111122 
NERRS,ioos:station:NOAA.NERRS:wkbfrwq:1,2016-09-03T02:45:00Z,30.4162,-87.8228,2.39,14.4,1111122 
NERRS,ioos:station:NOAA.NERRS:wkbfrwq:1,2016-09-03T03:45:00Z,30.4162,-87.8228,2.4,14.5,1111122 
NERRS,ioos:station:NOAA.NERRS:wkbfrwq:1,2016-09-03T04:45:00Z,30.4162,-87.8228,2.42,14.5,1111122 
NERRS,ioos:station:NOAA.NERRS:wkbfrwq:1,2016-09-03T05:45:00Z,30.4162,-87.8228,2.43,14.5,1111122 
NERRS,ioos:station:NOAA.NERRS:wkbfrwq:1,2016-09-03T06:45:00Z,30.4162,-87.8228,2.44,14.5,1111122 
NERRS,ioos:station:NOAA.NERRS:wkbfrwq:1,2016-09-03T07:45:00Z,30.4162,-87.8228,2.45,14.5,1111122 
NERRS,ioos:station:NOAA.NERRS:wkbfrwq:1,2016-09-03T08:45:00Z,30.4162,-87.8228,2.47,14.5,1111122 
NERRS,ioos:station:NOAA.NERRS:wkbfrwq:1,2016-09-03T09:45:00Z,30.4162,-87.8228,2.46,14.6,1111122 
NERRS,ioos:station:NOAA.NERRS:wkbfrwq:1,2016-09-03T10:45:00Z,30.4162,-87.8228,2.43,14.4,1111122 
NERRS,ioos:station:NOAA.NERRS:wkbfrwq:1,2016-09-03T11:45:00Z,30.4162,-87.8228,2.43,14.6,1111122 
NERRS,ioos:station:NOAA.NERRS:wkbfrwq:1,2016-09-03T12:45:00Z,30.4162,-87.8228,2.39,14.6,1111122 
NERRS,ioos:station:NOAA.NERRS:wkbfrwq:1,2016-09-03T13:45:00Z,30.4162,-87.8228,2.38,14.5,1111122 
NERRS,ioos:station:NOAA.NERRS:wkbfrwq:1,2016-09-03T14:45:00Z,30.4162,-87.8228,2.47,14.9,1111122 
NERRS,ioos:station:NOAA.NERRS:wkbfrwq:1,2016-09-03T15:45:00Z,30.4162,-87.8228,2.53,14.0,1111122 
NERRS,ioos:station:NOAA.NERRS:wkbfrwq:1,2016-09-03T16:45:00Z,30.4162,-87.8228,2.53,14.0,1111122 
NERRS,ioos:station:NOAA.NERRS:wkbfrwq:1,2016-09-03T17:45:00Z,30.4162,-87.8228,2.55,14.7,1111122 
NERRS,ioos:station:NOAA.NERRS:wkbfrwq:1,2016-09-03T18:45:00Z,30.4162,-87.8228,2.5,14.5,1111122 
NERRS,ioos:station:NOAA.NERRS:wkbfrwq:1,2016-09-03T19:45:00Z,30.4162,-87.8228,2.52,14.5,1111122 
NERRS,ioos:station:NOAA.NERRS:wkbfrwq:1,2016-09-03T20:45:00Z,30.4162,-87.8228,2.52,14.3,1111122 
NERRS,ioos:station:NOAA.NERRS:wkbfrwq:1,2016-09-03T21:45:00Z,30.4162,-87.8228,2.48,14.3,1111122 
NERRS,ioos:station:NOAA.NERRS:wkbfrwq:1,2016-09-03T23:45:00Z,30.4162,-87.8228,2.35,13.8,1111122 
NERRS,ioos:station:NOAA.NERRS:wkbfrwq:1,2016-09-04T00:45:00Z,30.4162,-87.8228,2.38,14.0,1111122 
NERRS,ioos:station:NOAA.NERRS:wkbfrwq:1,2016-09-04T01:45:00Z,30.4162,-87.8228,2.37,13.9,1111122 
NERRS,ioos:station:NOAA.NERRS:wkbfrwq:1,2016-09-04T02:45:00Z,30.4162,-87.8228,2.38,13.9,1111122 
NERRS,ioos:station:NOAA.NERRS:wkbfrwq:1,2016-09-04T03:45:00Z,30.4162,-87.8228,2.39,14.0,1111122 
NERRS,ioos:station:NOAA.NERRS:wkbfrwq:1,2016-09-04T04:45:00Z,30.4162,-87.8228,2.42,13.4,1111122 
NERRS,ioos:station:NOAA.NERRS:wkbfrwq:1,2016-09-04T05:45:00Z,30.4162,-87.8228,2.46,13.4,1111122 
NERRS,ioos:station:NOAA.NERRS:wkbfrwq:1,2016-09-04T06:45:00Z,30.4162,-87.8228,2.48,13.5,1111122 
NERRS,ioos:station:NOAA.NERRS:wkbfrwq:1,2016-09-04T07:45:00Z,30.4162,-87.8228,2.46,13.6,1111122 
NERRS,ioos:station:NOAA.NERRS:wkbfrwq:1,2016-09-04T08:45:00Z,30.4162,-87.8228,2.43,13.3,1111122 
NERRS,ioos:station:NOAA.NERRS:wkbfrwq:1,2016-09-04T09:45:00Z,30.4162,-87.8228,2.41,13.5,1111122 
NERRS,ioos:station:NOAA.NERRS:wkbfrwq:1,2016-09-04T10:45:00Z,30.4162,-87.8228,2.39,13.6,1111122 
NERRS,ioos:station:NOAA.NERRS:wkbfrwq:1,2016-09-04T15:45:00Z,30.4162,-87.8228,2.4,14.0,1111122 
NERRS,ioos:station:NOAA.NERRS:wkbfrwq:1,2016-09-04T17:45:00Z,30.4162,-87.8228,2.48,13.2,1111122 
NERRS,ioos:station:NOAA.NERRS:wkbfrwq:1,2016-09-04T18:45:00Z,30.4162,-87.8228,2.45,13.6,1111122 
NERRS,ioos:station:NOAA.NERRS:wkbfrwq:1,2016-09-04T19:45:00Z,30.4162,-87.8228,2.44,13.4,1111122 
NERRS,ioos:station:NOAA.NERRS:wkbfrwq:1,2016-09-04T20:45:00Z,30.4162,-87.8228,2.46,13.4,1111122 
NERRS,ioos:station:NOAA.NERRS:wkbfrwq:1,2016-09-04T21:45:00Z,30.4162,-87.8228,2.43,13.0,1111122 
NERRS,ioos:station:NOAA.NERRS:wkbfrwq:1,2016-09-04T22:45:00Z,30.4162,-87.8228,0.0,12.5,1111122 
NERRS,ioos:station:NOAA.NERRS:wkbfrwq:1,2016-09-05T04:45:00Z,30.4162,-87.8228,2.43,12.8,1111122 
NERRS,ioos:station:NOAA.NERRS:wkbfrwq:1,2016-09-05T06:45:00Z,30.4162,-87.8228,0.0,12.2,1111122 
NERRS,ioos:station:NOAA.NERRS:wkbfrwq:1,2016-09-05T09:45:00Z,30.4162,-87.8228,2.44,12.4,1111122 
NERRS,ioos:station:NOAA.NERRS:wkbfrwq:1,2016-09-05T10:45:00Z,30.4162,-87.8228,0.0,12.4,1111122 
NERRS,ioos:station:NOAA.NERRS:wkbfrwq:1,2016-09-05T12:45:00Z,30.4162,-87.8228,2.42,12.5,1111122 
NERRS,ioos:station:NOAA.NERRS:wkbfrwq:1,2016-09-05T13:45:00Z,30.4162,-87.8228,2.39,12.5,1111122 
NERRS,ioos:station:NOAA.NERRS:wkbfrwq:1,2016-09-05T18:45:00Z,30.4162,-87.8228,2.4,11.1,1111122 
NERRS,ioos:station:NOAA.NERRS:wkbfrwq:1,2016-09-05T19:45:00Z,30.4162,-87.8228,2.4,11.3,1111122 
NERRS,ioos:station:NOAA.NERRS:wkbfrwq:1,2016-09-05T20:45:00Z,30.4162,-87.8228,2.39,11.8,1111122 
NERRS,ioos:station:NOAA.NERRS:wkbfrwq:1,2016-09-05T21:45:00Z,30.4162,-87.8228,2.42,11.9,1111122 
NERRS,ioos:station:NOAA.NERRS:wkbfrwq:1,2016-09-05T22:45:00Z,30.4162,-87.8228,2.44,11.1,1111122 
NERRS,ioos:station:NOAA.NERRS:wkbfrwq:1,2016-09-05T23:45:00Z,30.4162,-87.8228,2.46,10.7,1111122 
NERRS,ioos:station:NOAA.NERRS:wkbfrwq:1,2016-09-06T00:45:00Z,30.4162,-87.8228,2.42,10.5,1111122 
NERRS,ioos:station:NOAA.NERRS:wkbfrwq:1,2016-09-06T01:45:00Z,30.4162,-87.8228,2.37,10.4,1111122 
NERRS,ioos:station:NOAA.NERRS:wkbfrwq:1,2016-09-06T02:45:00Z,30.4162,-87.8228,2.36,11.3,1111122 
NERRS,ioos:station:NOAA.NERRS:wkbfrwq:1,2016-09-06T03:45:00Z,30.4162,-87.8228,2.4,11.9,1111122 
NERRS,ioos:station:NOAA.NERRS:wkbfrwq:1,2016-09-06T04:45:00Z,30.4162,-87.8228,2.46,11.0,1111122 
NERRS,ioos:station:NOAA.NERRS:wkbfrwq:1,2016-09-06T05:45:00Z,30.4162,-87.8228,2.51,10.0,1111122 
NERRS,ioos:station:NOAA.NERRS:wkbfrwq:1,2016-09-06T06:45:00Z,30.4162,-87.8228,2.52,9.6,1111122 
NERRS,ioos:station:NOAA.NERRS:wkbfrwq:1,2016-09-06T07:45:00Z,30.4162,-87.8228,2.52,9.7,1111122 
NERRS,ioos:station:NOAA.NERRS:wkbfrwq:1,2016-09-06T08:45:00Z,30.4162,-87.8228,2.55,10.1,1111122 
NERRS,ioos:station:NOAA.NERRS:wkbfrwq:1,2016-09-06T09:45:00Z,30.4162,-87.8228,2.56,10.2,1111122 
NERRS,ioos:station:NOAA.NERRS:wkbfrwq:1,2016-09-06T10:45:00Z,30.4162,-87.8228,2.55,10.3,1111122 
NERRS,ioos:station:NOAA.NERRS:wkbfrwq:1,2016-09-06T11:45:00Z,30.4162,-87.8228,2.5,10.4,1111122 
NERRS,ioos:station:NOAA.NERRS:wkbfrwq:1,2016-09-06T12:45:00Z,30.4162,-87.8228,2.46,10.0,1111122 
NERRS,ioos:station:NOAA.NERRS:wkbfrwq:1,2016-09-06T13:45:00Z,30.4162,-87.8228,2.43,10.2,1111122 
NERRS,ioos:station:NOAA.NERRS:wkbfrwq:1,2016-09-06T14:45:00Z,30.4162,-87.8228,2.39,10.6,1111122 
NERRS,ioos:station:NOAA.NERRS:wkbfrwq:1,2016-09-06T15:45:00Z,30.4162,-87.8228,2.36,10.6,1111122 
NERRS,ioos:station:NOAA.NERRS:wkbfrwq:1,2016-09-06T16:45:00Z,30.4162,-87.8228,2.35,11.7,1111122 
NERRS,ioos:station:NOAA.NERRS:wkbfrwq:1,2016-09-06T17:45:00Z,30.4162,-87.8228,2.35,11.2,1111122 
NERRS,ioos:station:NOAA.NERRS:wkbfrwq:1,2016-09-06T18:45:00Z,30.4162,-87.8228,2.38,10.6,1111122 
NERRS,ioos:station:NOAA.NERRS:wkbfrwq:1,2016-09-06T19:45:00Z,30.4162,-87.8228,2.35,10.4,1111122 
NERRS,ioos:station:NOAA.NERRS:wkbfrwq:1,2016-09-06T20:45:00Z,30.4162,-87.8228,2.36,10.4,1111122 
NERRS,ioos:station:NOAA.NERRS:wkbfrwq:1,2016-09-06T21:45:00Z,30.4162,-87.8228,2.4,10.4,1111122 
NERRS,ioos:station:NOAA.NERRS:wkbfrwq:1,2016-09-06T22:45:00Z,30.4162,-87.8228,2.43,10.1,1111122 
NERRS,ioos:station:NOAA.NERRS:wkbfrwq:1,2016-09-06T23:45:00Z,30.4162,-87.8228,2.46,9.8,1111122 
NERRS,ioos:station:NOAA.NERRS:wkbfrwq:1,2016-09-07T00:45:00Z,30.4162,-87.8228,2.47,10.1,1111122 
NERRS,ioos:station:NOAA.NERRS:wkbfrwq:1,2016-09-07T01:45:00Z,30.4162,-87.8228,2.49,9.9,1111122 
NERRS,ioos:station:NOAA.NERRS:wkbfrwq:1,2016-09-07T02:45:00Z,30.4162,-87.8228,2.52,9.6,1111122 
NERRS,ioos:station:NOAA.NERRS:wkbfrwq:1,2016-09-07T03:45:00Z,30.4162,-87.8228,2.54,9.0,1111122 
NERRS,ioos:station:NOAA.NERRS:wkbfrwq:1,2016-09-07T04:45:00Z,30.4162,-87.8228,2.56,8.9,1111122 
NERRS,ioos:station:NOAA.NERRS:wkbfrwq:1,2016-09-07T05:45:00Z,30.4162,-87.8228,2.58,8.9,1111122 
NERRS,ioos:station:NOAA.NERRS:wkbfrwq:1,2016-09-07T06:45:00Z,30.4162,-87.8228,2.59,9.0,1111122 
NERRS,ioos:station:NOAA.NERRS:wkbfrwq:1,2016-09-07T07:45:00Z,30.4162,-87.8228,2.59,9.2,1111122 
NERRS,ioos:station:NOAA.NERRS:wkbfrwq:1,2016-09-07T08:45:00Z,30.4162,-87.8228,2.58,9.3,1111122 
NERRS,ioos:station:NOAA.NERRS:wkbfrwq:1,2016-09-07T09:45:00Z,30.4162,-87.8228,2.56,9.9,1111122 
NERRS,ioos:station:NOAA.NERRS:wkbfrwq:1,2016-09-07T10:45:00Z,30.4162,-87.8228,2.53,10.2,1111122 
NERRS,ioos:station:NOAA.NERRS:wkbfrwq:1,2016-09-07T11:45:00Z,30.4162,-87.8228,2.49,10.3,1111122 
NERRS,ioos:station:NOAA.NERRS:wkbfrwq:1,2016-09-07T12:45:00Z,30.4162,-87.8228,2.43,10.0,1111122 
NERRS,ioos:station:NOAA.NERRS:wkbfrwq:1,2016-09-07T13:45:00Z,30.4162,-87.8228,2.38,9.6,1111122 
NERRS,ioos:station:NOAA.NERRS:wkbfrwq:1,2016-09-07T14:45:00Z,30.4162,-87.8228,2.34,9.6,1111122 
NERRS,ioos:station:NOAA.NERRS:wkbfrwq:1,2016-09-07T15:45:00Z,30.4162,-87.8228,2.32,12.3,1111122 
NERRS,ioos:station:NOAA.NERRS:wkbfrwq:1,2016-09-07T16:45:00Z,30.4162,-87.8228,2.3,12.3,1111122 
NERRS,ioos:station:NOAA.NERRS:wkbfrwq:1,2016-09-07T18:45:00Z,30.4162,-87.8228,2.27,12.0,1111122 
NERRS,ioos:station:NOAA.NERRS:wkbfrwq:1,2016-09-07T19:45:00Z,30.4162,-87.8228,2.29,11.6,1111122 
NERRS,ioos:station:NOAA.NERRS:wkbfrwq:1,2016-09-07T20:45:00Z,30.4162,-87.8228,2.33,11.3,1111122 
NERRS,ioos:station:NOAA.NERRS:wkbfrwq:1,2016-09-07T21:45:00Z,30.4162,-87.8228,2.35,11.2,1111122 
NERRS,ioos:station:NOAA.NERRS:wkbfrwq:1,2016-09-07T22:45:00Z,30.4162,-87.8228,2.34,11.3,1111122 
NERRS,ioos:station:NOAA.NERRS:wkbfrwq:1,2016-09-07T23:45:00Z,30.4162,-87.8228,2.35,11.4,1111122 
NERRS,ioos:station:NOAA.NERRS:wkbfrwq:1,2016-09-08T00:45:00Z,30.4162,-87.8228,2.39,11.2,1111122 
NERRS,ioos:station:NOAA.NERRS:wkbfrwq:1,2016-09-08T01:45:00Z,30.4162,-87.8228,2.44,10.6,1111122 
NERRS,ioos:station:NOAA.NERRS:wkbfrwq:1,2016-09-08T02:45:00Z,30.4162,-87.8228,2.46,10.3,1111122 
NERRS,ioos:station:NOAA.NERRS:wkbfrwq:1,2016-09-08T03:45:00Z,30.4162,-87.8228,2.47,10.5,1111122 
NERRS,ioos:station:NOAA.NERRS:wkbfrwq:1,2016-09-08T04:45:00Z,30.4162,-87.8228,2.5,10.5,1111122 
NERRS,ioos:station:NOAA.NERRS:wkbfrwq:1,2016-09-08T05:45:00Z,30.4162,-87.8228,2.55,10.3,1111122 
NERRS,ioos:station:NOAA.NERRS:wkbfrwq:1,2016-09-08T06:45:00Z,30.4162,-87.8228,2.58,10.5,1111122 
NERRS,ioos:station:NOAA.NERRS:wkbfrwq:1,2016-09-08T07:45:00Z,30.4162,-87.8228,2.59,10.6,1111122 
NERRS,ioos:station:NOAA.NERRS:wkbfrwq:1,2016-09-08T08:45:00Z,30.4162,-87.8228,2.59,10.8,1111122 
NERRS,ioos:station:NOAA.NERRS:wkbfrwq:1,2016-09-08T09:45:00Z,30.4162,-87.8228,2.58,10.9,1111122 
NERRS,ioos:station:NOAA.NERRS:wkbfrwq:1,2016-09-08T10:45:00Z,30.4162,-87.8228,2.55,11.0,1111122 
NERRS,ioos:station:NOAA.NERRS:wkbfrwq:1,2016-09-08T11:45:00Z,30.4162,-87.8228,2.5,10.8,1111122 
NERRS,ioos:station:NOAA.NERRS:wkbfrwq:1,2016-09-08T12:45:00Z,30.4162,-87.8228,2.45,11.0,1111122 
NERRS,ioos:station:NOAA.NERRS:wkbfrwq:1,2016-09-08T13:45:00Z,30.4162,-87.8228,2.4,10.8,1111122 
NERRS,ioos:station:NOAA.NERRS:wkbfrwq:1,2016-09-08T14:45:00Z,30.4162,-87.8228,2.35,10.6,1111122 
NERRS,ioos:station:NOAA.NERRS:wkbfrwq:1,2016-09-08T15:45:00Z,30.4162,-87.8228,2.32,11.4,1111122 
NERRS,ioos:station:NOAA.NERRS:wkbfrwq:1,2016-09-08T16:45:00Z,30.4162,-87.8228,2.29,11.4,1111122 
NERRS,ioos:station:NOAA.NERRS:wkbfrwq:1,2016-09-08T17:45:00Z,30.4162,-87.8228,2.26,11.9,1111122 
NERRS,ioos:station:NOAA.NERRS:wkbfrwq:1,2016-09-08T18:45:00Z,30.4162,-87.8228,2.25,12.4,1111122 
NERRS,ioos:station:NOAA.NERRS:wkbfrwq:1,2016-09-08T19:45:00Z,30.4162,-87.8228,2.24,12.7,1111122 
NERRS,ioos:station:NOAA.NERRS:wkbfrwq:1,2016-09-08T20:45:00Z,30.4162,-87.8228,2.24,12.6,1111122 
NERRS,ioos:station:NOAA.NERRS:wkbfrwq:1,2016-09-08T21:45:00Z,30.4162,-87.8228,2.25,12.4,1111122 
NERRS,ioos:station:NOAA.NERRS:wkbfrwq:1,2016-09-08T22:45:00Z,30.4162,-87.8228,2.28,12.0,1111122 
NERRS,ioos:station:NOAA.NERRS:wkbfrwq:1,2016-09-08T23:45:00Z,30.4162,-87.8228,2.31,11.8,1111122 
NERRS,ioos:station:NOAA.NERRS:wkbfrwq:1,2016-09-09T00:45:00Z,30.4162,-87.8228,2.35,11.4,1111122 
NERRS,ioos:station:NOAA.NERRS:wkbfrwq:1,2016-09-09T01:45:00Z,30.4162,-87.8228,2.4,10.8,1111122 
NERRS,ioos:station:NOAA.NERRS:wkbfrwq:1,2016-09-09T02:45:00Z,30.4162,-87.8228,2.45,10.3,1111122 
NERRS,ioos:station:NOAA.NERRS:wkbfrwq:1,2016-09-09T03:45:00Z,30.4162,-87.8228,2.49,10.6,1111122 
NERRS,ioos:station:NOAA.NERRS:wkbfrwq:1,2016-09-09T04:45:00Z,30.4162,-87.8228,2.52,10.8,1111122 
NERRS,ioos:station:NOAA.NERRS:wkbfrwq:1,2016-09-09T05:45:00Z,30.4162,-87.8228,2.55,10.9,1111122 
NERRS,ioos:station:NOAA.NERRS:wkbfrwq:1,2016-09-09T06:45:00Z,30.4162,-87.8228,2.58,11.0,1111122 
NERRS,ioos:station:NOAA.NERRS:wkbfrwq:1,2016-09-09T07:45:00Z,30.4162,-87.8228,2.59,11.2,1111122 
NERRS,ioos:station:NOAA.NERRS:wkbfrwq:1,2016-09-09T08:45:00Z,30.4162,-87.8228,2.61,11.5,1111122 
NERRS,ioos:station:NOAA.NERRS:wkbfrwq:1,2016-09-09T09:45:00Z,30.4162,-87.8228,2.63,11.7,1111122 
NERRS,ioos:station:NOAA.NERRS:wkbfrwq:1,2016-09-09T10:45:00Z,30.4162,-87.8228,2.61,11.7,1111122 
NERRS,ioos:station:NOAA.NERRS:wkbfrwq:1,2016-09-09T11:45:00Z,30.4162,-87.8228,2.56,11.3,1111122 
NERRS,ioos:station:NOAA.NERRS:wkbfrwq:1,2016-09-09T12:45:00Z,30.4162,-87.8228,2.5,11.2,1111122 
NERRS,ioos:station:NOAA.NERRS:wkbfrwq:1,2016-09-09T13:45:00Z,30.4162,-87.8228,2.45,11.2,1111122 
NERRS,ioos:station:NOAA.NERRS:wkbfrwq:1,2016-09-09T14:45:00Z,30.4162,-87.8228,2.41,11.0,1111122 
NERRS,ioos:station:NOAA.NERRS:wkbfrwq:1,2016-09-09T15:45:00Z,30.4162,-87.8228,2.38,11.2,1111122 
NERRS,ioos:station:NOAA.NERRS:wkbfrwq:1,2016-09-09T16:45:00Z,30.4162,-87.8228,2.32,11.3,1111122 
NERRS,ioos:station:NOAA.NERRS:wkbfrwq:1,2016-09-09T17:45:00Z,30.4162,-87.8228,2.27,11.5,1111122 
NERRS,ioos:station:NOAA.NERRS:wkbfrwq:1,2016-09-09T18:45:00Z,30.4162,-87.8228,2.23,11.7,1111122 
NERRS,ioos:station:NOAA.NERRS:wkbfrwq:1,2016-09-09T19:45:00Z,30.4162,-87.8228,2.23,12.8,1111122 
NERRS,ioos:station:NOAA.NERRS:wkbfrwq:1,2016-09-09T20:45:00Z,30.4162,-87.8228,2.24,12.4,1111122 
NERRS,ioos:station:NOAA.NERRS:wkbfrwq:1,2016-09-09T21:45:00Z,30.4162,-87.8228,2.22,12.4,1111122 
NERRS,ioos:station:NOAA.NERRS:wkbfrwq:1,2016-09-09T22:45:00Z,30.4162,-87.8228,2.22,12.5,1111122 
NERRS,ioos:station:NOAA.NERRS:wkbfrwq:1,2016-09-09T23:45:00Z,30.4162,-87.8228,2.26,12.3,1111122 
NERRS,ioos:station:NOAA.NERRS:wkbfrwq:1,2016-09-10T00:45:00Z,30.4162,-87.8228,2.32,11.5,1111122 
NERRS,ioos:station:NOAA.NERRS:wkbfrwq:1,2016-09-10T03:45:00Z,30.4162,-87.8228,2.45,10.9,1111122 
NERRS,ioos:station:NOAA.NERRS:wkbfrwq:1,2016-09-10T04:45:00Z,30.4162,-87.8228,2.49,11.2,1111122 
NERRS,ioos:station:NOAA.NERRS:wkbfrwq:1,2016-09-10T05:45:00Z,30.4162,-87.8228,2.53,11.4,1111122 
NERRS,ioos:station:NOAA.NERRS:wkbfrwq:1,2016-09-10T06:45:00Z,30.4162,-87.8228,2.57,11.9,1111122 
NERRS,ioos:station:NOAA.NERRS:wkbfrwq:1,2016-09-10T07:45:00Z,30.4162,-87.8228,2.61,12.2,1111122 
NERRS,ioos:station:NOAA.NERRS:wkbfrwq:1,2016-09-10T08:45:00Z,30.4162,-87.8228,2.64,12.4,1111122 
NERRS,ioos:station:NOAA.NERRS:wkbfrwq:1,2016-09-10T09:45:00Z,30.4162,-87.8228,2.66,12.7,1111122 
NERRS,ioos:station:NOAA.NERRS:wkbfrwq:1,2016-09-10T10:45:00Z,30.4162,-87.8228,2.66,12.8,1111122 
NERRS,ioos:station:NOAA.NERRS:wkbfrwq:1,2016-09-10T11:45:00Z,30.4162,-87.8228,2.63,12.3,1111122 
NERRS,ioos:station:NOAA.NERRS:wkbfrwq:1,2016-09-10T12:45:00Z,30.4162,-87.8228,2.59,12.2,1111122 
NERRS,ioos:station:NOAA.NERRS:wkbfrwq:1,2016-09-10T13:45:00Z,30.4162,-87.8228,0.0,12.1,1111122 
NERRS,ioos:station:NOAA.NERRS:wkbfrwq:1,2016-09-10T14:45:00Z,30.4162,-87.8228,2.57,12.7,1111122 
NERRS,ioos:station:NOAA.NERRS:wkbfrwq:1,2016-09-10T15:45:00Z,30.4162,-87.8228,2.45,11.5,1111122 
NERRS,ioos:station:NOAA.NERRS:wkbfrwq:1,2016-09-10T16:45:00Z,30.4162,-87.8228,2.34,10.9,1111122 
NERRS,ioos:station:NOAA.NERRS:wkbfrwq:1,2016-09-10T17:45:00Z,30.4162,-87.8228,2.28,10.2,1111122 
NERRS,ioos:station:NOAA.NERRS:wkbfrwq:1,2016-09-10T18:45:00Z,30.4162,-87.8228,2.25,11.5,1111122 
NERRS,ioos:station:NOAA.NERRS:wkbfrwq:1,2016-09-10T19:45:00Z,30.4162,-87.8228,2.25,11.8,1111122 
NERRS,ioos:station:NOAA.NERRS:wkbfrwq:1,2016-09-10T20:45:00Z,30.4162,-87.8228,2.24,12.2,1111122 
NERRS,ioos:station:NOAA.NERRS:wkbfrwq:1,2016-09-10T21:45:00Z,30.4162,-87.8228,2.21,11.3,1111122 
NERRS,ioos:station:NOAA.NERRS:wkbfrwq:1,2016-09-10T22:45:00Z,30.4162,-87.8228,2.19,11.9,1111122 
NERRS,ioos:station:NOAA.NERRS:wkbfrwq:1,2016-09-10T23:45:00Z,30.4162,-87.8228,2.23,12.2,1111122 
NERRS,ioos:station:NOAA.NERRS:wkbfrwq:1,2016-09-11T00:45:00Z,30.4162,-87.8228,2.27,11.8,1111122 
NERRS,ioos:station:NOAA.NERRS:wkbfrwq:1,2016-09-11T01:45:00Z,30.4162,-87.8228,2.33,11.1,1111122 
NERRS,ioos:station:NOAA.NERRS:wkbfrwq:1,2016-09-11T02:45:00Z,30.4162,-87.8228,2.38,10.5,1111122 
NERRS,ioos:station:NOAA.NERRS:wkbfrwq:1,2016-09-11T03:45:00Z,30.4162,-87.8228,2.45,10.3,1111122 
NERRS,ioos:station:NOAA.NERRS:wkbfrwq:1,2016-09-11T04:45:00Z,30.4162,-87.8228,2.51,10.6,1111122 
NERRS,ioos:station:NOAA.NERRS:wkbfrwq:1,2016-09-11T05:45:00Z,30.4162,-87.8228,2.53,10.8,1111122 
NERRS,ioos:station:NOAA.NERRS:wkbfrwq:1,2016-09-11T06:45:00Z,30.4162,-87.8228,2.52,10.9,1111122 
NERRS,ioos:station:NOAA.NERRS:wkbfrwq:1,2016-09-11T07:45:00Z,30.4162,-87.8228,2.52,11.0,1111122 
NERRS,ioos:station:NOAA.NERRS:wkbfrwq:1,2016-09-11T08:45:00Z,30.4162,-87.8228,2.54,11.6,1111122 
NERRS,ioos:station:NOAA.NERRS:wkbfrwq:1,2016-09-11T09:45:00Z,30.4162,-87.8228,2.57,11.9,1111122 
NERRS,ioos:station:NOAA.NERRS:wkbfrwq:1,2016-09-11T10:45:00Z,30.4162,-87.8228,2.58,12.2,1111122 
NERRS,ioos:station:NOAA.NERRS:wkbfrwq:1,2016-09-11T11:45:00Z,30.4162,-87.8228,2.56,12.0,1111122 
NERRS,ioos:station:NOAA.NERRS:wkbfrwq:1,2016-09-11T12:45:00Z,30.4162,-87.8228,2.54,12.1,1111122 
NERRS,ioos:station:NOAA.NERRS:wkbfrwq:1,2016-09-11T13:45:00Z,30.4162,-87.8228,2.51,11.9,1111122 
NERRS,ioos:station:NOAA.NERRS:wkbfrwq:1,2016-09-11T14:45:00Z,30.4162,-87.8228,2.46,11.7,1111122 
NERRS,ioos:station:NOAA.NERRS:wkbfrwq:1,2016-09-11T15:45:00Z,30.4162,-87.8228,2.42,11.7,1111122 
NERRS,ioos:station:NOAA.NERRS:wkbfrwq:1,2016-09-11T16:45:00Z,30.4162,-87.8228,2.38,11.7,1111122 
NERRS,ioos:station:NOAA.NERRS:wkbfrwq:1,2016-09-11T17:45:00Z,30.4162,-87.8228,2.32,11.5,1111122 
NERRS,ioos:station:NOAA.NERRS:wkbfrwq:1,2016-09-11T18:45:00Z,30.4162,-87.8228,2.25,11.3,1111122 
NERRS,ioos:station:NOAA.NERRS:wkbfrwq:1,2016-09-11T19:45:00Z,30.4162,-87.8228,2.2,11.4,1111122 
NERRS,ioos:station:NOAA.NERRS:wkbfrwq:1,2016-09-11T20:45:00Z,30.4162,-87.8228,2.16,11.7,1111122 
NERRS,ioos:station:NOAA.NERRS:wkbfrwq:1,2016-09-11T21:45:00Z,30.4162,-87.8228,2.14,11.7,1111122 
NERRS,ioos:station:NOAA.NERRS:wkbfrwq:1,2016-09-11T22:45:00Z,30.4162,-87.8228,2.11,11.9,1111122 
NERRS,ioos:station:NOAA.NERRS:wkbfrwq:1,2016-09-11T23:45:00Z,30.4162,-87.8228,2.14,12.5,1111122 
NERRS,ioos:station:NOAA.NERRS:wkbfrwq:1,2016-09-12T00:45:00Z,30.4162,-87.8228,2.21,11.1,1111122 
NERRS,ioos:station:NOAA.NERRS:wkbfrwq:1,2016-09-12T01:45:00Z,30.4162,-87.8228,2.27,10.8,1111122 
NERRS,ioos:station:NOAA.NERRS:wkbfrwq:1,2016-09-12T02:45:00Z,30.4162,-87.8228,2.3,11.0,1111122 
NERRS,ioos:station:NOAA.NERRS:wkbfrwq:1,2016-09-12T03:45:00Z,30.4162,-87.8228,2.34,11.1,1111122 
NERRS,ioos:station:NOAA.NERRS:wkbfrwq:1,2016-09-12T04:45:00Z,30.4162,-87.8228,2.29,11.2,1111122 
NERRS,ioos:station:NOAA.NERRS:wkbfrwq:1,2016-09-12T05:45:00Z,30.4162,-87.8228,2.27,11.2,1111122 
NERRS,ioos:station:NOAA.NERRS:wkbfrwq:1,2016-09-12T06:45:00Z,30.4162,-87.8228,2.31,11.4,1111122 
NERRS,ioos:station:NOAA.NERRS:wkbfrwq:1,2016-09-12T07:45:00Z,30.4162,-87.8228,2.4,10.9,1111122 
NERRS,ioos:station:NOAA.NERRS:wkbfrwq:1,2016-09-12T08:45:00Z,30.4162,-87.8228,2.46,11.3,1111122 
NERRS,ioos:station:NOAA.NERRS:wkbfrwq:1,2016-09-12T09:45:00Z,30.4162,-87.8228,2.46,11.7,1111122 
NERRS,ioos:station:NOAA.NERRS:wkbfrwq:1,2016-09-12T10:45:00Z,30.4162,-87.8228,2.49,11.9,1111122 
NERRS,ioos:station:NOAA.NERRS:wkbfrwq:1,2016-09-12T11:45:00Z,30.4162,-87.8228,2.51,12.3,1111122 
NERRS,ioos:station:NOAA.NERRS:wkbfrwq:1,2016-09-12T12:45:00Z,30.4162,-87.8228,2.51,12.4,1111122 
NERRS,ioos:station:NOAA.NERRS:wkbfrwq:1,2016-09-12T13:45:00Z,30.4162,-87.8228,2.48,11.8,1111122 
NERRS,ioos:station:NOAA.NERRS:wkbfrwq:1,2016-09-12T14:45:00Z,30.4162,-87.8228,2.45,11.9,1111122 
NERRS,ioos:station:NOAA.NERRS:wkbfrwq:1,2016-09-12T15:45:00Z,30.4162,-87.8228,2.43,12.1,1111122 
NERRS,ioos:station:NOAA.NERRS:wkbfrwq:1,2016-09-12T16:45:00Z,30.4162,-87.8228,2.4,12.1,1111122 
NERRS,ioos:station:NOAA.NERRS:wkbfrwq:1,2016-09-12T18:45:00Z,30.4162,-87.8228,2.25,11.5,1111122 
NERRS,ioos:station:NOAA.NERRS:wkbfrwq:1,2016-09-12T19:45:00Z,30.4162,-87.8228,2.11,9.2,1111122 
NERRS,ioos:station:NOAA.NERRS:wkbfrwq:1,2016-09-12T20:45:00Z,30.4162,-87.8228,2.09,11.0,1111122 
NERRS,ioos:station:NOAA.NERRS:wkbfrwq:1,2016-09-12T21:45:00Z,30.4162,-87.8228,2.06,11.6,1111122 
NERRS,ioos:station:NOAA.NERRS:wkbfrwq:1,2016-09-12T22:45:00Z,30.4162,-87.8228,2.08,11.6,1111122 
NERRS,ioos:station:NOAA.NERRS:wkbfrwq:1,2016-09-12T23:45:00Z,30.4162,-87.8228,2.07,11.6,1111122 
NERRS,ioos:station:NOAA.NERRS:wkbfrwq:1,2016-09-13T00:45:00Z,30.4162,-87.8228,2.03,10.1,1111122 
NERRS,ioos:station:NOAA.NERRS:wkbfrwq:1,2016-09-13T01:45:00Z,30.4162,-87.8228,2.08,11.1,1111122 
NERRS,ioos:station:NOAA.NERRS:wkbfrwq:1,2016-09-13T02:45:00Z,30.4162,-87.8228,2.15,10.6,1111122 
NERRS,ioos:station:NOAA.NERRS:wkbfrwq:1,2016-09-13T03:45:00Z,30.4162,-87.8228,2.2,10.7,1111122 
NERRS,ioos:station:NOAA.NERRS:wkbfrwq:1,2016-09-13T04:45:00Z,30.4162,-87.8228,2.22,11.1,1111122 
NERRS,ioos:station:NOAA.NERRS:wkbfrwq:1,2016-09-13T05:45:00Z,30.4162,-87.8228,2.3,11.2,1111122 
NERRS,ioos:station:NOAA.NERRS:wkbfrwq:1,2016-09-13T06:45:00Z,30.4162,-87.8228,2.35,11.2,1111122 
NERRS,ioos:station:NOAA.NERRS:wkbfrwq:1,2016-09-13T07:45:00Z,30.4162,-87.8228,2.38,11.4,1111122 
NERRS,ioos:station:NOAA.NERRS:wkbfrwq:1,2016-09-13T08:45:00Z,30.4162,-87.8228,2.43,11.6,1111122 
NERRS,ioos:station:NOAA.NERRS:wkbfrwq:1,2016-09-13T09:45:00Z,30.4162,-87.8228,2.47,11.1,1111122 
NERRS,ioos:station:NOAA.NERRS:wkbfrwq:1,2016-09-13T10:45:00Z,30.4162,-87.8228,2.52,11.2,1111122 
NERRS,ioos:station:NOAA.NERRS:wkbfrwq:1,2016-09-13T11:45:00Z,30.4162,-87.8228,2.54,11.3,1111122 
NERRS,ioos:station:NOAA.NERRS:wkbfrwq:1,2016-09-13T12:45:00Z,30.4162,-87.8228,2.55,11.8,1111122 
NERRS,ioos:station:NOAA.NERRS:wkbfrwq:1,2016-09-13T13:45:00Z,30.4162,-87.8228,2.54,11.7,1111122 
NERRS,ioos:station:NOAA.NERRS:wkbfrwq:1,2016-09-13T14:45:00Z,30.4162,-87.8228,2.56,11.6,1111122 
NERRS,ioos:station:NOAA.NERRS:wkbfrwq:1,2016-09-13T15:45:00Z,30.4162,-87.8228,2.6,11.5,1111122 
NERRS,ioos:station:NOAA.NERRS:wkbfrwq:1,2016-09-13T16:45:00Z,30.4162,-87.8228,2.53,11.4,1111122 
NERRS,ioos:station:NOAA.NERRS:wkbfrwq:1,2016-09-13T17:45:00Z,30.4162,-87.8228,2.47,11.0,1111122 
NERRS,ioos:station:NOAA.NERRS:wkbfrwq:1,2016-09-13T18:45:00Z,30.4162,-87.8228,2.39,10.1,1111122 
NERRS,ioos:station:NOAA.NERRS:wkbfrwq:1,2016-09-13T19:45:00Z,30.4162,-87.8228,2.32,10.6,1111122 
NERRS,ioos:station:NOAA.NERRS:wkbfrwq:1,2016-09-13T20:45:00Z,30.4162,-87.8228,2.28,10.1,1111122 
NERRS,ioos:station:NOAA.NERRS:wkbfrwq:1,2016-09-13T21:45:00Z,30.4162,-87.8228,2.21,10.7,1111122 
NERRS,ioos:station:NOAA.NERRS:wkbfrwq:1,2016-09-13T22:45:00Z,30.4162,-87.8228,2.19,10.9,1111122 
NERRS,ioos:station:NOAA.NERRS:wkbfrwq:1,2016-09-14T00:45:00Z,30.4162,-87.8228,2.16,10.9,1111122 
NERRS,ioos:station:NOAA.NERRS:wkbfrwq:1,2016-09-14T01:45:00Z,30.4162,-87.8228,2.17,11.4,1111122 